Index of /20260422/WXO-DD/model_gdps/15km/00/093
Name Last modified Size Description
Parent Directory -
20260422T00Z_MSC_GDPS_AbsoluteVorticity_IsbL-0200_LatLon0.15_PT093H.grib2 2026-04-22 04:33 1.2M
20260422T00Z_MSC_GDPS_AbsoluteVorticity_IsbL-0250_LatLon0.15_PT093H.grib2 2026-04-22 04:33 1.3M
20260422T00Z_MSC_GDPS_AbsoluteVorticity_IsbL-0500_LatLon0.15_PT093H.grib2 2026-04-22 04:33 1.2M
20260422T00Z_MSC_GDPS_AbsoluteVorticity_IsbL-0700_LatLon0.15_PT093H.grib2 2026-04-22 04:33 1.3M
20260422T00Z_MSC_GDPS_AbsoluteVorticity_IsbL-0850_LatLon0.15_PT093H.grib2 2026-04-22 04:33 1.6M
20260422T00Z_MSC_GDPS_AirTemp_AGL-120m_LatLon0.15_PT093H.grib2 2026-04-22 04:33 918K
20260422T00Z_MSC_GDPS_AirTemp_AGL-2m_LatLon0.15_PT093H.grib2 2026-04-22 04:33 1.0M
20260422T00Z_MSC_GDPS_AirTemp_AGL-40m_LatLon0.15_PT093H.grib2 2026-04-22 04:33 825K
20260422T00Z_MSC_GDPS_AirTemp_AGL-80m_LatLon0.15_PT093H.grib2 2026-04-22 04:33 929K
20260422T00Z_MSC_GDPS_AirTemp_IsbL-0001_LatLon0.15_PT093H.grib2 2026-04-22 04:33 703K
20260422T00Z_MSC_GDPS_AirTemp_IsbL-0005_LatLon0.15_PT093H.grib2 2026-04-22 04:33 749K
20260422T00Z_MSC_GDPS_AirTemp_IsbL-0010_LatLon0.15_PT093H.grib2 2026-04-22 04:33 755K
20260422T00Z_MSC_GDPS_AirTemp_IsbL-0020_LatLon0.15_PT093H.grib2 2026-04-22 04:33 698K
20260422T00Z_MSC_GDPS_AirTemp_IsbL-0030_LatLon0.15_PT093H.grib2 2026-04-22 04:33 752K
20260422T00Z_MSC_GDPS_AirTemp_IsbL-0050_LatLon0.15_PT093H.grib2 2026-04-22 04:33 811K
20260422T00Z_MSC_GDPS_AirTemp_IsbL-0100_LatLon0.15_PT093H.grib2 2026-04-22 04:33 951K
20260422T00Z_MSC_GDPS_AirTemp_IsbL-0150_LatLon0.15_PT093H.grib2 2026-04-22 04:33 964K
20260422T00Z_MSC_GDPS_AirTemp_IsbL-0175_LatLon0.15_PT093H.grib2 2026-04-22 04:33 955K
20260422T00Z_MSC_GDPS_AirTemp_IsbL-0200_LatLon0.15_PT093H.grib2 2026-04-22 04:33 968K
20260422T00Z_MSC_GDPS_AirTemp_IsbL-0225_LatLon0.15_PT093H.grib2 2026-04-22 04:33 971K
20260422T00Z_MSC_GDPS_AirTemp_IsbL-0250_LatLon0.15_PT093H.grib2 2026-04-22 04:33 1.0M
20260422T00Z_MSC_GDPS_AirTemp_IsbL-0275_LatLon0.15_PT093H.grib2 2026-04-22 04:33 1.0M
20260422T00Z_MSC_GDPS_AirTemp_IsbL-0300_LatLon0.15_PT093H.grib2 2026-04-22 04:33 1.0M
20260422T00Z_MSC_GDPS_AirTemp_IsbL-0350_LatLon0.15_PT093H.grib2 2026-04-22 04:33 931K
20260422T00Z_MSC_GDPS_AirTemp_IsbL-0400_LatLon0.15_PT093H.grib2 2026-04-22 04:33 945K
20260422T00Z_MSC_GDPS_AirTemp_IsbL-0450_LatLon0.15_PT093H.grib2 2026-04-22 04:33 966K
20260422T00Z_MSC_GDPS_AirTemp_IsbL-0500_LatLon0.15_PT093H.grib2 2026-04-22 04:33 1.0M
20260422T00Z_MSC_GDPS_AirTemp_IsbL-0550_LatLon0.15_PT093H.grib2 2026-04-22 04:33 808K
20260422T00Z_MSC_GDPS_AirTemp_IsbL-0600_LatLon0.15_PT093H.grib2 2026-04-22 04:33 897K
20260422T00Z_MSC_GDPS_AirTemp_IsbL-0650_LatLon0.15_PT093H.grib2 2026-04-22 04:33 919K
20260422T00Z_MSC_GDPS_AirTemp_IsbL-0700_LatLon0.15_PT093H.grib2 2026-04-22 04:33 956K
20260422T00Z_MSC_GDPS_AirTemp_IsbL-0750_LatLon0.15_PT093H.grib2 2026-04-22 04:33 1.0M
20260422T00Z_MSC_GDPS_AirTemp_IsbL-0800_LatLon0.15_PT093H.grib2 2026-04-22 04:33 1.1M
20260422T00Z_MSC_GDPS_AirTemp_IsbL-0850_LatLon0.15_PT093H.grib2 2026-04-22 04:33 1.1M
20260422T00Z_MSC_GDPS_AirTemp_IsbL-0875_LatLon0.15_PT093H.grib2 2026-04-22 04:33 1.2M
20260422T00Z_MSC_GDPS_AirTemp_IsbL-0900_LatLon0.15_PT093H.grib2 2026-04-22 04:33 1.1M
20260422T00Z_MSC_GDPS_AirTemp_IsbL-0925_LatLon0.15_PT093H.grib2 2026-04-22 04:33 1.1M
20260422T00Z_MSC_GDPS_AirTemp_IsbL-0950_LatLon0.15_PT093H.grib2 2026-04-22 04:33 1.2M
20260422T00Z_MSC_GDPS_AirTemp_IsbL-0970_LatLon0.15_PT093H.grib2 2026-04-22 04:33 1.2M
20260422T00Z_MSC_GDPS_AirTemp_IsbL-0985_LatLon0.15_PT093H.grib2 2026-04-22 04:33 1.1M
20260422T00Z_MSC_GDPS_AirTemp_IsbL-1000_LatLon0.15_PT093H.grib2 2026-04-22 04:33 1.1M
20260422T00Z_MSC_GDPS_AirTemp_IsbL-1015_LatLon0.15_PT093H.grib2 2026-04-22 04:33 1.1M
20260422T00Z_MSC_GDPS_Albedo_Sfc_LatLon0.15_PT093H.grib2 2026-04-22 04:33 248K
20260422T00Z_MSC_GDPS_CAPE_Sfc_LatLon0.15_PT093H.grib2 2026-04-22 04:33 3.9M
20260422T00Z_MSC_GDPS_CIN_Sfc_LatLon0.15_PT093H.grib2 2026-04-22 04:33 2.8M
20260422T00Z_MSC_GDPS_CloudWater_EAtm_LatLon0.15_PT093H.grib2 2026-04-22 04:33 538K
20260422T00Z_MSC_GDPS_ConvectivePrecip-Accum_Sfc_LatLon0.15_PT093H.grib2 2026-04-22 04:33 3.2M
20260422T00Z_MSC_GDPS_DewPointDepression_AGL-2m_LatLon0.15_PT093H.grib2 2026-04-22 04:33 754K
20260422T00Z_MSC_GDPS_DewPointDepression_IsbL-0010_LatLon0.15_PT093H.grib2 2026-04-22 04:33 33K
20260422T00Z_MSC_GDPS_DewPointDepression_IsbL-0020_LatLon0.15_PT093H.grib2 2026-04-22 04:33 72K
20260422T00Z_MSC_GDPS_DewPointDepression_IsbL-0030_LatLon0.15_PT093H.grib2 2026-04-22 04:33 80K
20260422T00Z_MSC_GDPS_DewPointDepression_IsbL-0050_LatLon0.15_PT093H.grib2 2026-04-22 04:33 365K
20260422T00Z_MSC_GDPS_DewPointDepression_IsbL-0100_LatLon0.15_PT093H.grib2 2026-04-22 04:33 391K
20260422T00Z_MSC_GDPS_DewPointDepression_IsbL-0150_LatLon0.15_PT093H.grib2 2026-04-22 04:33 465K
20260422T00Z_MSC_GDPS_DewPointDepression_IsbL-0175_LatLon0.15_PT093H.grib2 2026-04-22 04:33 559K
20260422T00Z_MSC_GDPS_DewPointDepression_IsbL-0200_LatLon0.15_PT093H.grib2 2026-04-22 04:33 654K
20260422T00Z_MSC_GDPS_DewPointDepression_IsbL-0225_LatLon0.15_PT093H.grib2 2026-04-22 04:33 767K
20260422T00Z_MSC_GDPS_DewPointDepression_IsbL-0250_LatLon0.15_PT093H.grib2 2026-04-22 04:33 856K
20260422T00Z_MSC_GDPS_DewPointDepression_IsbL-0275_LatLon0.15_PT093H.grib2 2026-04-22 04:33 884K
20260422T00Z_MSC_GDPS_DewPointDepression_IsbL-0300_LatLon0.15_PT093H.grib2 2026-04-22 04:33 935K
20260422T00Z_MSC_GDPS_DewPointDepression_IsbL-0350_LatLon0.15_PT093H.grib2 2026-04-22 04:33 970K
20260422T00Z_MSC_GDPS_DewPointDepression_IsbL-0400_LatLon0.15_PT093H.grib2 2026-04-22 04:33 1.0M
20260422T00Z_MSC_GDPS_DewPointDepression_IsbL-0450_LatLon0.15_PT093H.grib2 2026-04-22 04:33 1.0M
20260422T00Z_MSC_GDPS_DewPointDepression_IsbL-0500_LatLon0.15_PT093H.grib2 2026-04-22 04:33 1.0M
20260422T00Z_MSC_GDPS_DewPointDepression_IsbL-0550_LatLon0.15_PT093H.grib2 2026-04-22 04:33 1.0M
20260422T00Z_MSC_GDPS_DewPointDepression_IsbL-0600_LatLon0.15_PT093H.grib2 2026-04-22 04:33 1.1M
20260422T00Z_MSC_GDPS_DewPointDepression_IsbL-0650_LatLon0.15_PT093H.grib2 2026-04-22 04:33 1.1M
20260422T00Z_MSC_GDPS_DewPointDepression_IsbL-0700_LatLon0.15_PT093H.grib2 2026-04-22 04:33 1.1M
20260422T00Z_MSC_GDPS_DewPointDepression_IsbL-0750_LatLon0.15_PT093H.grib2 2026-04-22 04:33 1.1M
20260422T00Z_MSC_GDPS_DewPointDepression_IsbL-0800_LatLon0.15_PT093H.grib2 2026-04-22 04:33 1.2M
20260422T00Z_MSC_GDPS_DewPointDepression_IsbL-0850_LatLon0.15_PT093H.grib2 2026-04-22 04:33 1.1M
20260422T00Z_MSC_GDPS_DewPointDepression_IsbL-0875_LatLon0.15_PT093H.grib2 2026-04-22 04:33 1.1M
20260422T00Z_MSC_GDPS_DewPointDepression_IsbL-0900_LatLon0.15_PT093H.grib2 2026-04-22 04:33 1.1M
20260422T00Z_MSC_GDPS_DewPointDepression_IsbL-0925_LatLon0.15_PT093H.grib2 2026-04-22 04:33 1.0M
20260422T00Z_MSC_GDPS_DewPointDepression_IsbL-0950_LatLon0.15_PT093H.grib2 2026-04-22 04:33 1.0M
20260422T00Z_MSC_GDPS_DewPointDepression_IsbL-0970_LatLon0.15_PT093H.grib2 2026-04-22 04:33 1.0M
20260422T00Z_MSC_GDPS_DewPointDepression_IsbL-0985_LatLon0.15_PT093H.grib2 2026-04-22 04:33 1.0M
20260422T00Z_MSC_GDPS_DewPointDepression_IsbL-1000_LatLon0.15_PT093H.grib2 2026-04-22 04:33 1.0M
20260422T00Z_MSC_GDPS_DewPointDepression_IsbL-1015_LatLon0.15_PT093H.grib2 2026-04-22 04:33 915K
20260422T00Z_MSC_GDPS_DewPoint_AGL-2m_LatLon0.15_PT093H.grib2 2026-04-22 04:33 610K
20260422T00Z_MSC_GDPS_DownwardLongwaveRadiationFlux-Accum_Sfc_LatLon0.15_PT093H.grib2 2026-04-22 04:33 714K
20260422T00Z_MSC_GDPS_DownwardShortwaveRadiationFlux-Accum_NTAtm_LatLon0.15_PT093H.grib2 2026-04-22 04:33 258K
20260422T00Z_MSC_GDPS_DownwardShortwaveRadiationFlux-Accum_Sfc_LatLon0.15_PT093H.grib2 2026-04-22 04:33 944K
20260422T00Z_MSC_GDPS_FreezingRain-Accum1h_Sfc_LatLon0.15_PT093H.grib2 2026-04-22 04:33 60K
20260422T00Z_MSC_GDPS_FreezingRain-Accum3h_Sfc_LatLon0.15_PT093H.grib2 2026-04-22 04:33 70K
20260422T00Z_MSC_GDPS_FreezingRain-Accum_Sfc_LatLon0.15_PT093H.grib2 2026-04-22 04:33 343K
20260422T00Z_MSC_GDPS_GeopotentialHeight_IsbL-0001_LatLon0.15_PT093H.grib2 2026-04-22 04:33 391K
20260422T00Z_MSC_GDPS_GeopotentialHeight_IsbL-0005_LatLon0.15_PT093H.grib2 2026-04-22 04:33 500K
20260422T00Z_MSC_GDPS_GeopotentialHeight_IsbL-0010_LatLon0.15_PT093H.grib2 2026-04-22 04:33 481K
20260422T00Z_MSC_GDPS_GeopotentialHeight_IsbL-0020_LatLon0.15_PT093H.grib2 2026-04-22 04:33 420K
20260422T00Z_MSC_GDPS_GeopotentialHeight_IsbL-0030_LatLon0.15_PT093H.grib2 2026-04-22 04:33 577K
20260422T00Z_MSC_GDPS_GeopotentialHeight_IsbL-0050_LatLon0.15_PT093H.grib2 2026-04-22 04:33 572K
20260422T00Z_MSC_GDPS_GeopotentialHeight_IsbL-0100_LatLon0.15_PT093H.grib2 2026-04-22 04:33 606K
20260422T00Z_MSC_GDPS_GeopotentialHeight_IsbL-0150_LatLon0.15_PT093H.grib2 2026-04-22 04:33 626K
20260422T00Z_MSC_GDPS_GeopotentialHeight_IsbL-0175_LatLon0.15_PT093H.grib2 2026-04-22 04:33 631K
20260422T00Z_MSC_GDPS_GeopotentialHeight_IsbL-0200_LatLon0.15_PT093H.grib2 2026-04-22 04:33 636K
20260422T00Z_MSC_GDPS_GeopotentialHeight_IsbL-0225_LatLon0.15_PT093H.grib2 2026-04-22 04:33 634K
20260422T00Z_MSC_GDPS_GeopotentialHeight_IsbL-0250_LatLon0.15_PT093H.grib2 2026-04-22 04:33 640K
20260422T00Z_MSC_GDPS_GeopotentialHeight_IsbL-0275_LatLon0.15_PT093H.grib2 2026-04-22 04:33 643K
20260422T00Z_MSC_GDPS_GeopotentialHeight_IsbL-0300_LatLon0.15_PT093H.grib2 2026-04-22 04:33 642K
20260422T00Z_MSC_GDPS_GeopotentialHeight_IsbL-0350_LatLon0.15_PT093H.grib2 2026-04-22 04:33 631K
20260422T00Z_MSC_GDPS_GeopotentialHeight_IsbL-0400_LatLon0.15_PT093H.grib2 2026-04-22 04:33 625K
20260422T00Z_MSC_GDPS_GeopotentialHeight_IsbL-0450_LatLon0.15_PT093H.grib2 2026-04-22 04:33 546K
20260422T00Z_MSC_GDPS_GeopotentialHeight_IsbL-0500_LatLon0.15_PT093H.grib2 2026-04-22 04:33 536K
20260422T00Z_MSC_GDPS_GeopotentialHeight_IsbL-0550_LatLon0.15_PT093H.grib2 2026-04-22 04:33 696K
20260422T00Z_MSC_GDPS_GeopotentialHeight_IsbL-0600_LatLon0.15_PT093H.grib2 2026-04-22 04:33 691K
20260422T00Z_MSC_GDPS_GeopotentialHeight_IsbL-0650_LatLon0.15_PT093H.grib2 2026-04-22 04:33 686K
20260422T00Z_MSC_GDPS_GeopotentialHeight_IsbL-0700_LatLon0.15_PT093H.grib2 2026-04-22 04:33 684K
20260422T00Z_MSC_GDPS_GeopotentialHeight_IsbL-0750_LatLon0.15_PT093H.grib2 2026-04-22 04:33 684K
20260422T00Z_MSC_GDPS_GeopotentialHeight_IsbL-0800_LatLon0.15_PT093H.grib2 2026-04-22 04:33 698K
20260422T00Z_MSC_GDPS_GeopotentialHeight_IsbL-0850_LatLon0.15_PT093H.grib2 2026-04-22 04:33 704K
20260422T00Z_MSC_GDPS_GeopotentialHeight_IsbL-0875_LatLon0.15_PT093H.grib2 2026-04-22 04:33 713K
20260422T00Z_MSC_GDPS_GeopotentialHeight_IsbL-0900_LatLon0.15_PT093H.grib2 2026-04-22 04:33 720K
20260422T00Z_MSC_GDPS_GeopotentialHeight_IsbL-0925_LatLon0.15_PT093H.grib2 2026-04-22 04:33 723K
20260422T00Z_MSC_GDPS_GeopotentialHeight_IsbL-0950_LatLon0.15_PT093H.grib2 2026-04-22 04:33 731K
20260422T00Z_MSC_GDPS_GeopotentialHeight_IsbL-0970_LatLon0.15_PT093H.grib2 2026-04-22 04:33 744K
20260422T00Z_MSC_GDPS_GeopotentialHeight_IsbL-0985_LatLon0.15_PT093H.grib2 2026-04-22 04:33 762K
20260422T00Z_MSC_GDPS_GeopotentialHeight_IsbL-1000_LatLon0.15_PT093H.grib2 2026-04-22 04:33 784K
20260422T00Z_MSC_GDPS_GeopotentialHeight_IsbL-1015_LatLon0.15_PT093H.grib2 2026-04-22 04:33 808K
20260422T00Z_MSC_GDPS_Humidex_Sfc_LatLon0.15_PT093H.grib2 2026-04-22 04:33 5.3M
20260422T00Z_MSC_GDPS_IcePellets-Accum1h_Sfc_LatLon0.15_PT093H.grib2 2026-04-22 04:33 23K
20260422T00Z_MSC_GDPS_IcePellets-Accum3h_Sfc_LatLon0.15_PT093H.grib2 2026-04-22 04:33 28K
20260422T00Z_MSC_GDPS_IcePellets-Accum_Sfc_LatLon0.15_PT093H.grib2 2026-04-22 04:33 123K
20260422T00Z_MSC_GDPS_KIndex_Sfc_LatLon0.15_PT093H.grib2 2026-04-22 04:33 6.5M
20260422T00Z_MSC_GDPS_LatentHeatNetFlux_Sfc_LatLon0.15_PT093H.grib2 2026-04-22 04:33 658K
20260422T00Z_MSC_GDPS_LiftedIndex-MU-VT_IsbL-0500_LatLon0.15_PT093H.grib2 2026-04-22 04:33 5.4M
20260422T00Z_MSC_GDPS_NetLongwaveRadiationFlux-Accum_Sfc_LatLon0.15_PT093H.grib2 2026-04-22 04:33 946K
20260422T00Z_MSC_GDPS_NetShortwaveRadiationFlux-Accum_Sfc_LatLon0.15_PT093H.grib2 2026-04-22 04:33 934K
20260422T00Z_MSC_GDPS_O3MixingRatio_LatLon0.15_PT093H.grib2 2026-04-22 04:59 2.3M
20260422T00Z_MSC_GDPS_O3_EAtm_LatLon0.15_PT093H.grib2 2026-04-22 04:59 2.5M
20260422T00Z_MSC_GDPS_PlanetaryBoundaryLayerHeight_Sfc_LatLon0.15_PT093H.grib2 2026-04-22 04:33 2.4M
20260422T00Z_MSC_GDPS_Precip-Accum1h_Sfc_LatLon0.15_PT093H.grib2 2026-04-22 04:33 3.3M
20260422T00Z_MSC_GDPS_Precip-Accum3h_Sfc_LatLon0.15_PT093H.grib2 2026-04-22 04:33 3.6M
20260422T00Z_MSC_GDPS_Precip-Accum_Sfc_LatLon0.15_PT093H.grib2 2026-04-22 04:33 5.0M
20260422T00Z_MSC_GDPS_PrecipRate_Sfc_LatLon0.15_PT093H.grib2 2026-04-22 04:33 3.1M
20260422T00Z_MSC_GDPS_PrecipType-Instant_Sfc_LatLon0.15_PT093H.grib2 2026-04-22 04:33 1.6M
20260422T00Z_MSC_GDPS_Pressure_MSL_LatLon0.15_PT093H.grib2 2026-04-22 04:33 722K
20260422T00Z_MSC_GDPS_Pressure_PVU-1.5_LatLon0.15_PT093H.grib2 2026-04-22 04:33 5.8M
20260422T00Z_MSC_GDPS_Pressure_PVU-1_LatLon0.15_PT093H.grib2 2026-04-22 04:33 6.0M
20260422T00Z_MSC_GDPS_Pressure_PVU-2_LatLon0.15_PT093H.grib2 2026-04-22 04:33 5.6M
20260422T00Z_MSC_GDPS_Pressure_Sfc_LatLon0.15_PT093H.grib2 2026-04-22 04:33 1.1M
20260422T00Z_MSC_GDPS_RadiativeTemp_Sfc_LatLon0.15_PT093H.grib2 2026-04-22 04:33 663K
20260422T00Z_MSC_GDPS_Rain-Accum1h_Sfc_LatLon0.15_PT093H.grib2 2026-04-22 04:33 1.7M
20260422T00Z_MSC_GDPS_Rain-Accum3h_Sfc_LatLon0.15_PT093H.grib2 2026-04-22 04:33 1.7M
20260422T00Z_MSC_GDPS_Rain-Accum_Sfc_LatLon0.15_PT093H.grib2 2026-04-22 04:33 4.0M
20260422T00Z_MSC_GDPS_RelativeHumidity_AGL-2m_LatLon0.15_PT093H.grib2 2026-04-22 04:33 1.0M
20260422T00Z_MSC_GDPS_RelativeHumidity_IsbL-0010_LatLon0.15_PT093H.grib2 2026-04-22 04:33 258K
20260422T00Z_MSC_GDPS_RelativeHumidity_IsbL-0020_LatLon0.15_PT093H.grib2 2026-04-22 04:33 266K
20260422T00Z_MSC_GDPS_RelativeHumidity_IsbL-0030_LatLon0.15_PT093H.grib2 2026-04-22 04:33 422K
20260422T00Z_MSC_GDPS_RelativeHumidity_IsbL-0050_LatLon0.15_PT093H.grib2 2026-04-22 04:33 333K
20260422T00Z_MSC_GDPS_RelativeHumidity_IsbL-0100_LatLon0.15_PT093H.grib2 2026-04-22 04:33 492K
20260422T00Z_MSC_GDPS_RelativeHumidity_IsbL-0150_LatLon0.15_PT093H.grib2 2026-04-22 04:33 648K
20260422T00Z_MSC_GDPS_RelativeHumidity_IsbL-0175_LatLon0.15_PT093H.grib2 2026-04-22 04:33 585K
20260422T00Z_MSC_GDPS_RelativeHumidity_IsbL-0200_LatLon0.15_PT093H.grib2 2026-04-22 04:33 693K
20260422T00Z_MSC_GDPS_RelativeHumidity_IsbL-0225_LatLon0.15_PT093H.grib2 2026-04-22 04:33 780K
20260422T00Z_MSC_GDPS_RelativeHumidity_IsbL-0250_LatLon0.15_PT093H.grib2 2026-04-22 04:33 862K
20260422T00Z_MSC_GDPS_RelativeHumidity_IsbL-0275_LatLon0.15_PT093H.grib2 2026-04-22 04:33 889K
20260422T00Z_MSC_GDPS_RelativeHumidity_IsbL-0300_LatLon0.15_PT093H.grib2 2026-04-22 04:33 940K
20260422T00Z_MSC_GDPS_RelativeHumidity_IsbL-0350_LatLon0.15_PT093H.grib2 2026-04-22 04:33 968K
20260422T00Z_MSC_GDPS_RelativeHumidity_IsbL-0400_LatLon0.15_PT093H.grib2 2026-04-22 04:33 1.0M
20260422T00Z_MSC_GDPS_RelativeHumidity_IsbL-0450_LatLon0.15_PT093H.grib2 2026-04-22 04:33 1.0M
20260422T00Z_MSC_GDPS_RelativeHumidity_IsbL-0500_LatLon0.15_PT093H.grib2 2026-04-22 04:33 1.0M
20260422T00Z_MSC_GDPS_RelativeHumidity_IsbL-0550_LatLon0.15_PT093H.grib2 2026-04-22 04:33 1.0M
20260422T00Z_MSC_GDPS_RelativeHumidity_IsbL-0600_LatLon0.15_PT093H.grib2 2026-04-22 04:33 1.1M
20260422T00Z_MSC_GDPS_RelativeHumidity_IsbL-0650_LatLon0.15_PT093H.grib2 2026-04-22 04:33 1.1M
20260422T00Z_MSC_GDPS_RelativeHumidity_IsbL-0700_LatLon0.15_PT093H.grib2 2026-04-22 04:33 1.1M
20260422T00Z_MSC_GDPS_RelativeHumidity_IsbL-0750_LatLon0.15_PT093H.grib2 2026-04-22 04:33 1.1M
20260422T00Z_MSC_GDPS_RelativeHumidity_IsbL-0800_LatLon0.15_PT093H.grib2 2026-04-22 04:33 1.2M
20260422T00Z_MSC_GDPS_RelativeHumidity_IsbL-0850_LatLon0.15_PT093H.grib2 2026-04-22 04:33 1.3M
20260422T00Z_MSC_GDPS_RelativeHumidity_IsbL-0875_LatLon0.15_PT093H.grib2 2026-04-22 04:33 1.3M
20260422T00Z_MSC_GDPS_RelativeHumidity_IsbL-0900_LatLon0.15_PT093H.grib2 2026-04-22 04:33 1.2M
20260422T00Z_MSC_GDPS_RelativeHumidity_IsbL-0925_LatLon0.15_PT093H.grib2 2026-04-22 04:33 1.2M
20260422T00Z_MSC_GDPS_RelativeHumidity_IsbL-0950_LatLon0.15_PT093H.grib2 2026-04-22 04:33 1.2M
20260422T00Z_MSC_GDPS_RelativeHumidity_IsbL-0970_LatLon0.15_PT093H.grib2 2026-04-22 04:33 1.2M
20260422T00Z_MSC_GDPS_RelativeHumidity_IsbL-0985_LatLon0.15_PT093H.grib2 2026-04-22 04:33 1.2M
20260422T00Z_MSC_GDPS_RelativeHumidity_IsbL-1000_LatLon0.15_PT093H.grib2 2026-04-22 04:33 1.2M
20260422T00Z_MSC_GDPS_RelativeHumidity_IsbL-1015_LatLon0.15_PT093H.grib2 2026-04-22 04:33 1.1M
20260422T00Z_MSC_GDPS_RelativeVorticity_IsbL-0200_LatLon0.15_PT093H.grib2 2026-04-22 04:33 1.5M
20260422T00Z_MSC_GDPS_RelativeVorticity_IsbL-0250_LatLon0.15_PT093H.grib2 2026-04-22 04:33 1.3M
20260422T00Z_MSC_GDPS_RelativeVorticity_IsbL-0500_LatLon0.15_PT093H.grib2 2026-04-22 04:33 1.2M
20260422T00Z_MSC_GDPS_RelativeVorticity_IsbL-0700_LatLon0.15_PT093H.grib2 2026-04-22 04:33 1.3M
20260422T00Z_MSC_GDPS_RelativeVorticity_IsbL-0850_LatLon0.15_PT093H.grib2 2026-04-22 04:33 1.6M
20260422T00Z_MSC_GDPS_Runoff-Accum_Sfc_LatLon0.15_PT093H.grib2 2026-04-22 04:33 112K
20260422T00Z_MSC_GDPS_SensibleHeatNetFlux_Sfc_LatLon0.15_PT093H.grib2 2026-04-22 04:33 606K
20260422T00Z_MSC_GDPS_ShowalterIndex_IsbL-0500_LatLon0.15_PT093H.grib2 2026-04-22 04:33 6.2M
20260422T00Z_MSC_GDPS_Snow-Accum1h_Sfc_LatLon0.15_PT093H.grib2 2026-04-22 04:33 1.3M
20260422T00Z_MSC_GDPS_Snow-Accum3h_Sfc_LatLon0.15_PT093H.grib2 2026-04-22 04:33 1.4M
20260422T00Z_MSC_GDPS_Snow-Accum_Sfc_LatLon0.15_PT093H.grib2 2026-04-22 04:33 1.9M
20260422T00Z_MSC_GDPS_SnowDensity_Sfc_LatLon0.15_PT093H.grib2 2026-04-22 04:33 269K
20260422T00Z_MSC_GDPS_SnowDepth_Sfc_LatLon0.15_PT093H.grib2 2026-04-22 04:33 1.8M
20260422T00Z_MSC_GDPS_SoilTemp_DBS-0to10cm_LatLon0.15_PT093H.grib2 2026-04-22 04:33 508K
20260422T00Z_MSC_GDPS_SoilTemp_Sfc_LatLon0.15_PT093H.grib2 2026-04-22 04:33 573K
20260422T00Z_MSC_GDPS_SoilVolumetricIceContent_Sfc_LatLon0.15_PT093H.grib2 2026-04-22 04:33 215K
20260422T00Z_MSC_GDPS_SoilVolumetricWaterContent_DBS-0to10cm_LatLon0.15_PT093H.grib2 2026-04-22 04:33 563K
20260422T00Z_MSC_GDPS_SoilVolumetricWaterContent_DBS-0to1cm_LatLon0.15_PT093H.grib2 2026-04-22 04:33 655K
20260422T00Z_MSC_GDPS_SpecificHumidity_AGL-120m_LatLon0.15_PT093H.grib2 2026-04-22 04:33 1.1M
20260422T00Z_MSC_GDPS_SpecificHumidity_AGL-2m_LatLon0.15_PT093H.grib2 2026-04-22 04:33 1.2M
20260422T00Z_MSC_GDPS_SpecificHumidity_AGL-40m_LatLon0.15_PT093H.grib2 2026-04-22 04:33 1.1M
20260422T00Z_MSC_GDPS_SpecificHumidity_AGL-80m_LatLon0.15_PT093H.grib2 2026-04-22 04:33 1.1M
20260422T00Z_MSC_GDPS_SpecificHumidity_IsbL-0001_LatLon0.15_PT093H.grib2 2026-04-22 04:33 1.2M
20260422T00Z_MSC_GDPS_SpecificHumidity_IsbL-0005_LatLon0.15_PT093H.grib2 2026-04-22 04:33 1.4M
20260422T00Z_MSC_GDPS_SpecificHumidity_IsbL-0010_LatLon0.15_PT093H.grib2 2026-04-22 04:33 1.3M
20260422T00Z_MSC_GDPS_SpecificHumidity_IsbL-0020_LatLon0.15_PT093H.grib2 2026-04-22 04:33 1.3M
20260422T00Z_MSC_GDPS_SpecificHumidity_IsbL-0030_LatLon0.15_PT093H.grib2 2026-04-22 04:33 1.6M
20260422T00Z_MSC_GDPS_SpecificHumidity_IsbL-0050_LatLon0.15_PT093H.grib2 2026-04-22 04:33 1.3M
20260422T00Z_MSC_GDPS_SpecificHumidity_IsbL-0100_LatLon0.15_PT093H.grib2 2026-04-22 04:33 1.3M
20260422T00Z_MSC_GDPS_SpecificHumidity_IsbL-0150_LatLon0.15_PT093H.grib2 2026-04-22 04:33 1.0M
20260422T00Z_MSC_GDPS_SpecificHumidity_IsbL-0175_LatLon0.15_PT093H.grib2 2026-04-22 04:33 1.3M
20260422T00Z_MSC_GDPS_SpecificHumidity_IsbL-0200_LatLon0.15_PT093H.grib2 2026-04-22 04:33 1.3M
20260422T00Z_MSC_GDPS_SpecificHumidity_IsbL-0225_LatLon0.15_PT093H.grib2 2026-04-22 04:33 1.3M
20260422T00Z_MSC_GDPS_SpecificHumidity_IsbL-0250_LatLon0.15_PT093H.grib2 2026-04-22 04:33 1.4M
20260422T00Z_MSC_GDPS_SpecificHumidity_IsbL-0275_LatLon0.15_PT093H.grib2 2026-04-22 04:33 1.3M
20260422T00Z_MSC_GDPS_SpecificHumidity_IsbL-0300_LatLon0.15_PT093H.grib2 2026-04-22 04:33 1.2M
20260422T00Z_MSC_GDPS_SpecificHumidity_IsbL-0350_LatLon0.15_PT093H.grib2 2026-04-22 04:33 1.5M
20260422T00Z_MSC_GDPS_SpecificHumidity_IsbL-0400_LatLon0.15_PT093H.grib2 2026-04-22 04:33 1.5M
20260422T00Z_MSC_GDPS_SpecificHumidity_IsbL-0450_LatLon0.15_PT093H.grib2 2026-04-22 04:33 1.6M
20260422T00Z_MSC_GDPS_SpecificHumidity_IsbL-0500_LatLon0.15_PT093H.grib2 2026-04-22 04:33 1.4M
20260422T00Z_MSC_GDPS_SpecificHumidity_IsbL-0550_LatLon0.15_PT093H.grib2 2026-04-22 04:33 1.6M
20260422T00Z_MSC_GDPS_SpecificHumidity_IsbL-0600_LatLon0.15_PT093H.grib2 2026-04-22 04:33 1.7M
20260422T00Z_MSC_GDPS_SpecificHumidity_IsbL-0650_LatLon0.15_PT093H.grib2 2026-04-22 04:33 1.5M
20260422T00Z_MSC_GDPS_SpecificHumidity_IsbL-0700_LatLon0.15_PT093H.grib2 2026-04-22 04:33 1.6M
20260422T00Z_MSC_GDPS_SpecificHumidity_IsbL-0750_LatLon0.15_PT093H.grib2 2026-04-22 04:33 1.7M
20260422T00Z_MSC_GDPS_SpecificHumidity_IsbL-0800_LatLon0.15_PT093H.grib2 2026-04-22 04:33 1.9M
20260422T00Z_MSC_GDPS_SpecificHumidity_IsbL-0850_LatLon0.15_PT093H.grib2 2026-04-22 04:33 1.9M
20260422T00Z_MSC_GDPS_SpecificHumidity_IsbL-0875_LatLon0.15_PT093H.grib2 2026-04-22 04:33 1.9M
20260422T00Z_MSC_GDPS_SpecificHumidity_IsbL-0900_LatLon0.15_PT093H.grib2 2026-04-22 04:33 1.9M
20260422T00Z_MSC_GDPS_SpecificHumidity_IsbL-0925_LatLon0.15_PT093H.grib2 2026-04-22 04:33 1.9M
20260422T00Z_MSC_GDPS_SpecificHumidity_IsbL-0950_LatLon0.15_PT093H.grib2 2026-04-22 04:33 1.5M
20260422T00Z_MSC_GDPS_SpecificHumidity_IsbL-0970_LatLon0.15_PT093H.grib2 2026-04-22 04:33 1.5M
20260422T00Z_MSC_GDPS_SpecificHumidity_IsbL-0985_LatLon0.15_PT093H.grib2 2026-04-22 04:33 1.5M
20260422T00Z_MSC_GDPS_SpecificHumidity_IsbL-1000_LatLon0.15_PT093H.grib2 2026-04-22 04:33 1.5M
20260422T00Z_MSC_GDPS_SpecificHumidity_IsbL-1015_LatLon0.15_PT093H.grib2 2026-04-22 04:33 1.4M
20260422T00Z_MSC_GDPS_SpecificHumidity_Sfc_LatLon0.15_PT093H.grib2 2026-04-22 04:33 663K
20260422T00Z_MSC_GDPS_Thickness_IsbL-0850to0700_LatLon0.15_PT093H.grib2 2026-04-22 04:33 464K
20260422T00Z_MSC_GDPS_Thickness_IsbL-1000to0500_LatLon0.15_PT093H.grib2 2026-04-22 04:33 368K
20260422T00Z_MSC_GDPS_Thickness_IsbL-1000to0850_LatLon0.15_PT093H.grib2 2026-04-22 04:33 489K
20260422T00Z_MSC_GDPS_TotalCloudCover_Sfc_LatLon0.15_PT093H.grib2 2026-04-22 04:33 843K
20260422T00Z_MSC_GDPS_TotalTotalsIndex_Sfc_LatLon0.15_PT093H.grib2 2026-04-22 04:33 6.2M
20260422T00Z_MSC_GDPS_UVIndex-ClearSky_Sfc_LatLon0.15_PT093H.grib2 2026-04-22 04:59 1.0M
20260422T00Z_MSC_GDPS_UVIndex_Sfc_LatLon0.15_PT093H.grib2 2026-04-22 04:59 1.5M
20260422T00Z_MSC_GDPS_UpwardLongwaveRadiationFlux_NTAtm_LatLon0.15_PT093H.grib2 2026-04-22 04:33 844K
20260422T00Z_MSC_GDPS_VerticalVelocity_IsbL-0200_LatLon0.15_PT093H.grib2 2026-04-22 04:33 936K
20260422T00Z_MSC_GDPS_VerticalVelocity_IsbL-0250_LatLon0.15_PT093H.grib2 2026-04-22 04:33 1.0M
20260422T00Z_MSC_GDPS_VerticalVelocity_IsbL-0500_LatLon0.15_PT093H.grib2 2026-04-22 04:33 1.3M
20260422T00Z_MSC_GDPS_VerticalVelocity_IsbL-0600_LatLon0.15_PT093H.grib2 2026-04-22 04:33 1.3M
20260422T00Z_MSC_GDPS_VerticalVelocity_IsbL-0700_LatLon0.15_PT093H.grib2 2026-04-22 04:33 1.4M
20260422T00Z_MSC_GDPS_VerticalVelocity_IsbL-0850_LatLon0.15_PT093H.grib2 2026-04-22 04:33 1.6M
20260422T00Z_MSC_GDPS_WindChill_Sfc_LatLon0.15_PT093H.grib2 2026-04-22 04:33 5.3M
20260422T00Z_MSC_GDPS_WindDir_AGL-10m_LatLon0.15_PT093H.grib2 2026-04-22 04:33 1.3M
20260422T00Z_MSC_GDPS_WindDir_AGL-120m_LatLon0.15_PT093H.grib2 2026-04-22 04:33 1.4M
20260422T00Z_MSC_GDPS_WindDir_AGL-40m_LatLon0.15_PT093H.grib2 2026-04-22 04:33 1.4M
20260422T00Z_MSC_GDPS_WindDir_AGL-80m_LatLon0.15_PT093H.grib2 2026-04-22 04:33 1.4M
20260422T00Z_MSC_GDPS_WindDir_IsbL-0001_LatLon0.15_PT093H.grib2 2026-04-22 04:33 662K
20260422T00Z_MSC_GDPS_WindDir_IsbL-0005_LatLon0.15_PT093H.grib2 2026-04-22 04:33 816K
20260422T00Z_MSC_GDPS_WindDir_IsbL-0010_LatLon0.15_PT093H.grib2 2026-04-22 04:33 851K
20260422T00Z_MSC_GDPS_WindDir_IsbL-0020_LatLon0.15_PT093H.grib2 2026-04-22 04:33 955K
20260422T00Z_MSC_GDPS_WindDir_IsbL-0030_LatLon0.15_PT093H.grib2 2026-04-22 04:33 918K
20260422T00Z_MSC_GDPS_WindDir_IsbL-0050_LatLon0.15_PT093H.grib2 2026-04-22 04:33 955K
20260422T00Z_MSC_GDPS_WindDir_IsbL-0100_LatLon0.15_PT093H.grib2 2026-04-22 04:33 1.0M
20260422T00Z_MSC_GDPS_WindDir_IsbL-0150_LatLon0.15_PT093H.grib2 2026-04-22 04:33 1.0M
20260422T00Z_MSC_GDPS_WindDir_IsbL-0175_LatLon0.15_PT093H.grib2 2026-04-22 04:33 1.1M
20260422T00Z_MSC_GDPS_WindDir_IsbL-0200_LatLon0.15_PT093H.grib2 2026-04-22 04:33 1.1M
20260422T00Z_MSC_GDPS_WindDir_IsbL-0225_LatLon0.15_PT093H.grib2 2026-04-22 04:33 1.1M
20260422T00Z_MSC_GDPS_WindDir_IsbL-0250_LatLon0.15_PT093H.grib2 2026-04-22 04:33 1.1M
20260422T00Z_MSC_GDPS_WindDir_IsbL-0275_LatLon0.15_PT093H.grib2 2026-04-22 04:33 1.2M
20260422T00Z_MSC_GDPS_WindDir_IsbL-0300_LatLon0.15_PT093H.grib2 2026-04-22 04:33 1.2M
20260422T00Z_MSC_GDPS_WindDir_IsbL-0350_LatLon0.15_PT093H.grib2 2026-04-22 04:33 1.2M
20260422T00Z_MSC_GDPS_WindDir_IsbL-0400_LatLon0.15_PT093H.grib2 2026-04-22 04:33 1.3M
20260422T00Z_MSC_GDPS_WindDir_IsbL-0450_LatLon0.15_PT093H.grib2 2026-04-22 04:33 1.3M
20260422T00Z_MSC_GDPS_WindDir_IsbL-0500_LatLon0.15_PT093H.grib2 2026-04-22 04:33 1.4M
20260422T00Z_MSC_GDPS_WindDir_IsbL-0550_LatLon0.15_PT093H.grib2 2026-04-22 04:33 1.4M
20260422T00Z_MSC_GDPS_WindDir_IsbL-0600_LatLon0.15_PT093H.grib2 2026-04-22 04:33 1.5M
20260422T00Z_MSC_GDPS_WindDir_IsbL-0650_LatLon0.15_PT093H.grib2 2026-04-22 04:33 1.6M
20260422T00Z_MSC_GDPS_WindDir_IsbL-0700_LatLon0.15_PT093H.grib2 2026-04-22 04:33 1.6M
20260422T00Z_MSC_GDPS_WindDir_IsbL-0750_LatLon0.15_PT093H.grib2 2026-04-22 04:33 1.7M
20260422T00Z_MSC_GDPS_WindDir_IsbL-0800_LatLon0.15_PT093H.grib2 2026-04-22 04:33 1.8M
20260422T00Z_MSC_GDPS_WindDir_IsbL-0850_LatLon0.15_PT093H.grib2 2026-04-22 04:33 1.9M
20260422T00Z_MSC_GDPS_WindDir_IsbL-0875_LatLon0.15_PT093H.grib2 2026-04-22 04:33 2.0M
20260422T00Z_MSC_GDPS_WindDir_IsbL-0900_LatLon0.15_PT093H.grib2 2026-04-22 04:33 2.0M
20260422T00Z_MSC_GDPS_WindDir_IsbL-0925_LatLon0.15_PT093H.grib2 2026-04-22 04:33 2.0M
20260422T00Z_MSC_GDPS_WindDir_IsbL-0950_LatLon0.15_PT093H.grib2 2026-04-22 04:33 2.0M
20260422T00Z_MSC_GDPS_WindDir_IsbL-0970_LatLon0.15_PT093H.grib2 2026-04-22 04:33 2.0M
20260422T00Z_MSC_GDPS_WindDir_IsbL-0985_LatLon0.15_PT093H.grib2 2026-04-22 04:33 2.0M
20260422T00Z_MSC_GDPS_WindDir_IsbL-1000_LatLon0.15_PT093H.grib2 2026-04-22 04:33 2.1M
20260422T00Z_MSC_GDPS_WindDir_IsbL-1015_LatLon0.15_PT093H.grib2 2026-04-22 04:33 2.1M
20260422T00Z_MSC_GDPS_WindGust-Max_AGL-10m_LatLon0.15_PT093H.grib2 2026-04-22 04:33 2.2M
20260422T00Z_MSC_GDPS_WindGust-Min_AGL-10m_LatLon0.15_PT093H.grib2 2026-04-22 04:33 2.1M
20260422T00Z_MSC_GDPS_WindGust_AGL-10m_LatLon0.15_PT093H.grib2 2026-04-22 04:33 2.1M
20260422T00Z_MSC_GDPS_WindSpeed_AGL-10m_LatLon0.15_PT093H.grib2 2026-04-22 04:33 1.1M
20260422T00Z_MSC_GDPS_WindSpeed_AGL-120m_LatLon0.15_PT093H.grib2 2026-04-22 04:33 1.3M
20260422T00Z_MSC_GDPS_WindSpeed_AGL-40m_LatLon0.15_PT093H.grib2 2026-04-22 04:33 1.3M
20260422T00Z_MSC_GDPS_WindSpeed_AGL-80m_LatLon0.15_PT093H.grib2 2026-04-22 04:33 1.3M
20260422T00Z_MSC_GDPS_WindSpeed_IsbL-0001_LatLon0.15_PT093H.grib2 2026-04-22 04:33 638K
20260422T00Z_MSC_GDPS_WindSpeed_IsbL-0005_LatLon0.15_PT093H.grib2 2026-04-22 04:33 609K
20260422T00Z_MSC_GDPS_WindSpeed_IsbL-0010_LatLon0.15_PT093H.grib2 2026-04-22 04:33 623K
20260422T00Z_MSC_GDPS_WindSpeed_IsbL-0020_LatLon0.15_PT093H.grib2 2026-04-22 04:33 858K
20260422T00Z_MSC_GDPS_WindSpeed_IsbL-0030_LatLon0.15_PT093H.grib2 2026-04-22 04:33 854K
20260422T00Z_MSC_GDPS_WindSpeed_IsbL-0050_LatLon0.15_PT093H.grib2 2026-04-22 04:33 1.0M
20260422T00Z_MSC_GDPS_WindSpeed_IsbL-0100_LatLon0.15_PT093H.grib2 2026-04-22 04:33 1.1M
20260422T00Z_MSC_GDPS_WindSpeed_IsbL-0150_LatLon0.15_PT093H.grib2 2026-04-22 04:33 1.0M
20260422T00Z_MSC_GDPS_WindSpeed_IsbL-0175_LatLon0.15_PT093H.grib2 2026-04-22 04:33 1.0M
20260422T00Z_MSC_GDPS_WindSpeed_IsbL-0200_LatLon0.15_PT093H.grib2 2026-04-22 04:33 1.1M
20260422T00Z_MSC_GDPS_WindSpeed_IsbL-0225_LatLon0.15_PT093H.grib2 2026-04-22 04:33 1.1M
20260422T00Z_MSC_GDPS_WindSpeed_IsbL-0250_LatLon0.15_PT093H.grib2 2026-04-22 04:33 1.1M
20260422T00Z_MSC_GDPS_WindSpeed_IsbL-0275_LatLon0.15_PT093H.grib2 2026-04-22 04:33 1.1M
20260422T00Z_MSC_GDPS_WindSpeed_IsbL-0300_LatLon0.15_PT093H.grib2 2026-04-22 04:33 1.1M
20260422T00Z_MSC_GDPS_WindSpeed_IsbL-0350_LatLon0.15_PT093H.grib2 2026-04-22 04:33 1.1M
20260422T00Z_MSC_GDPS_WindSpeed_IsbL-0400_LatLon0.15_PT093H.grib2 2026-04-22 04:33 1.1M
20260422T00Z_MSC_GDPS_WindSpeed_IsbL-0450_LatLon0.15_PT093H.grib2 2026-04-22 04:33 1.1M
20260422T00Z_MSC_GDPS_WindSpeed_IsbL-0500_LatLon0.15_PT093H.grib2 2026-04-22 04:33 1.1M
20260422T00Z_MSC_GDPS_WindSpeed_IsbL-0550_LatLon0.15_PT093H.grib2 2026-04-22 04:33 1.1M
20260422T00Z_MSC_GDPS_WindSpeed_IsbL-0600_LatLon0.15_PT093H.grib2 2026-04-22 04:33 1.1M
20260422T00Z_MSC_GDPS_WindSpeed_IsbL-0650_LatLon0.15_PT093H.grib2 2026-04-22 04:33 1.2M
20260422T00Z_MSC_GDPS_WindSpeed_IsbL-0700_LatLon0.15_PT093H.grib2 2026-04-22 04:33 1.5M
20260422T00Z_MSC_GDPS_WindSpeed_IsbL-0750_LatLon0.15_PT093H.grib2 2026-04-22 04:33 1.6M
20260422T00Z_MSC_GDPS_WindSpeed_IsbL-0800_LatLon0.15_PT093H.grib2 2026-04-22 04:33 1.7M
20260422T00Z_MSC_GDPS_WindSpeed_IsbL-0850_LatLon0.15_PT093H.grib2 2026-04-22 04:33 1.8M
20260422T00Z_MSC_GDPS_WindSpeed_IsbL-0875_LatLon0.15_PT093H.grib2 2026-04-22 04:33 1.8M
20260422T00Z_MSC_GDPS_WindSpeed_IsbL-0900_LatLon0.15_PT093H.grib2 2026-04-22 04:33 1.8M
20260422T00Z_MSC_GDPS_WindSpeed_IsbL-0925_LatLon0.15_PT093H.grib2 2026-04-22 04:33 1.8M
20260422T00Z_MSC_GDPS_WindSpeed_IsbL-0950_LatLon0.15_PT093H.grib2 2026-04-22 04:33 1.9M
20260422T00Z_MSC_GDPS_WindSpeed_IsbL-0970_LatLon0.15_PT093H.grib2 2026-04-22 04:33 1.9M
20260422T00Z_MSC_GDPS_WindSpeed_IsbL-0985_LatLon0.15_PT093H.grib2 2026-04-22 04:33 1.9M
20260422T00Z_MSC_GDPS_WindSpeed_IsbL-1000_LatLon0.15_PT093H.grib2 2026-04-22 04:33 1.9M
20260422T00Z_MSC_GDPS_WindSpeed_IsbL-1015_LatLon0.15_PT093H.grib2 2026-04-22 04:33 1.8M
20260422T00Z_MSC_GDPS_WindU_AGL-10m_LatLon0.15_PT093H.grib2 2026-04-22 04:33 1.3M
20260422T00Z_MSC_GDPS_WindU_AGL-120m_LatLon0.15_PT093H.grib2 2026-04-22 04:33 1.0M
20260422T00Z_MSC_GDPS_WindU_AGL-40m_LatLon0.15_PT093H.grib2 2026-04-22 04:33 1.0M
20260422T00Z_MSC_GDPS_WindU_AGL-80m_LatLon0.15_PT093H.grib2 2026-04-22 04:33 1.0M
20260422T00Z_MSC_GDPS_WindU_IsbL-0001_LatLon0.15_PT093H.grib2 2026-04-22 04:33 638K
20260422T00Z_MSC_GDPS_WindU_IsbL-0005_LatLon0.15_PT093H.grib2 2026-04-22 04:33 686K
20260422T00Z_MSC_GDPS_WindU_IsbL-0010_LatLon0.15_PT093H.grib2 2026-04-22 04:33 699K
20260422T00Z_MSC_GDPS_WindU_IsbL-0020_LatLon0.15_PT093H.grib2 2026-04-22 04:33 731K
20260422T00Z_MSC_GDPS_WindU_IsbL-0030_LatLon0.15_PT093H.grib2 2026-04-22 04:33 734K
20260422T00Z_MSC_GDPS_WindU_IsbL-0050_LatLon0.15_PT093H.grib2 2026-04-22 04:33 699K
20260422T00Z_MSC_GDPS_WindU_IsbL-0100_LatLon0.15_PT093H.grib2 2026-04-22 04:33 910K
20260422T00Z_MSC_GDPS_WindU_IsbL-0150_LatLon0.15_PT093H.grib2 2026-04-22 04:33 1.0M
20260422T00Z_MSC_GDPS_WindU_IsbL-0175_LatLon0.15_PT093H.grib2 2026-04-22 04:33 1.0M
20260422T00Z_MSC_GDPS_WindU_IsbL-0200_LatLon0.15_PT093H.grib2 2026-04-22 04:33 1.0M
20260422T00Z_MSC_GDPS_WindU_IsbL-0225_LatLon0.15_PT093H.grib2 2026-04-22 04:33 852K
20260422T00Z_MSC_GDPS_WindU_IsbL-0250_LatLon0.15_PT093H.grib2 2026-04-22 04:33 853K
20260422T00Z_MSC_GDPS_WindU_IsbL-0275_LatLon0.15_PT093H.grib2 2026-04-22 04:33 877K
20260422T00Z_MSC_GDPS_WindU_IsbL-0300_LatLon0.15_PT093H.grib2 2026-04-22 04:33 871K
20260422T00Z_MSC_GDPS_WindU_IsbL-0350_LatLon0.15_PT093H.grib2 2026-04-22 04:33 889K
20260422T00Z_MSC_GDPS_WindU_IsbL-0400_LatLon0.15_PT093H.grib2 2026-04-22 04:33 890K
20260422T00Z_MSC_GDPS_WindU_IsbL-0450_LatLon0.15_PT093H.grib2 2026-04-22 04:33 1.1M
20260422T00Z_MSC_GDPS_WindU_IsbL-0500_LatLon0.15_PT093H.grib2 2026-04-22 04:33 1.1M
20260422T00Z_MSC_GDPS_WindU_IsbL-0550_LatLon0.15_PT093H.grib2 2026-04-22 04:33 1.1M
20260422T00Z_MSC_GDPS_WindU_IsbL-0600_LatLon0.15_PT093H.grib2 2026-04-22 04:33 1.1M
20260422T00Z_MSC_GDPS_WindU_IsbL-0650_LatLon0.15_PT093H.grib2 2026-04-22 04:33 1.2M
20260422T00Z_MSC_GDPS_WindU_IsbL-0700_LatLon0.15_PT093H.grib2 2026-04-22 04:33 1.2M
20260422T00Z_MSC_GDPS_WindU_IsbL-0750_LatLon0.15_PT093H.grib2 2026-04-22 04:33 1.3M
20260422T00Z_MSC_GDPS_WindU_IsbL-0800_LatLon0.15_PT093H.grib2 2026-04-22 04:33 1.4M
20260422T00Z_MSC_GDPS_WindU_IsbL-0850_LatLon0.15_PT093H.grib2 2026-04-22 04:33 1.4M
20260422T00Z_MSC_GDPS_WindU_IsbL-0875_LatLon0.15_PT093H.grib2 2026-04-22 04:33 1.5M
20260422T00Z_MSC_GDPS_WindU_IsbL-0900_LatLon0.15_PT093H.grib2 2026-04-22 04:33 1.5M
20260422T00Z_MSC_GDPS_WindU_IsbL-0925_LatLon0.15_PT093H.grib2 2026-04-22 04:33 1.5M
20260422T00Z_MSC_GDPS_WindU_IsbL-0950_LatLon0.15_PT093H.grib2 2026-04-22 04:33 1.4M
20260422T00Z_MSC_GDPS_WindU_IsbL-0970_LatLon0.15_PT093H.grib2 2026-04-22 04:33 1.4M
20260422T00Z_MSC_GDPS_WindU_IsbL-0985_LatLon0.15_PT093H.grib2 2026-04-22 04:33 1.4M
20260422T00Z_MSC_GDPS_WindU_IsbL-1000_LatLon0.15_PT093H.grib2 2026-04-22 04:33 1.4M
20260422T00Z_MSC_GDPS_WindU_IsbL-1015_LatLon0.15_PT093H.grib2 2026-04-22 04:33 1.4M
20260422T00Z_MSC_GDPS_WindV_AGL-10m_LatLon0.15_PT093H.grib2 2026-04-22 04:33 1.3M
20260422T00Z_MSC_GDPS_WindV_AGL-120m_LatLon0.15_PT093H.grib2 2026-04-22 04:33 1.0M
20260422T00Z_MSC_GDPS_WindV_AGL-40m_LatLon0.15_PT093H.grib2 2026-04-22 04:33 1.0M
20260422T00Z_MSC_GDPS_WindV_AGL-80m_LatLon0.15_PT093H.grib2 2026-04-22 04:33 1.0M
20260422T00Z_MSC_GDPS_WindV_IsbL-0001_LatLon0.15_PT093H.grib2 2026-04-22 04:33 765K
20260422T00Z_MSC_GDPS_WindV_IsbL-0005_LatLon0.15_PT093H.grib2 2026-04-22 04:33 851K
20260422T00Z_MSC_GDPS_WindV_IsbL-0010_LatLon0.15_PT093H.grib2 2026-04-22 04:33 877K
20260422T00Z_MSC_GDPS_WindV_IsbL-0020_LatLon0.15_PT093H.grib2 2026-04-22 04:33 846K
20260422T00Z_MSC_GDPS_WindV_IsbL-0030_LatLon0.15_PT093H.grib2 2026-04-22 04:33 845K
20260422T00Z_MSC_GDPS_WindV_IsbL-0050_LatLon0.15_PT093H.grib2 2026-04-22 04:33 905K
20260422T00Z_MSC_GDPS_WindV_IsbL-0100_LatLon0.15_PT093H.grib2 2026-04-22 04:33 1.0M
20260422T00Z_MSC_GDPS_WindV_IsbL-0150_LatLon0.15_PT093H.grib2 2026-04-22 04:33 1.0M
20260422T00Z_MSC_GDPS_WindV_IsbL-0175_LatLon0.15_PT093H.grib2 2026-04-22 04:33 1.0M
20260422T00Z_MSC_GDPS_WindV_IsbL-0200_LatLon0.15_PT093H.grib2 2026-04-22 04:33 840K
20260422T00Z_MSC_GDPS_WindV_IsbL-0225_LatLon0.15_PT093H.grib2 2026-04-22 04:33 849K
20260422T00Z_MSC_GDPS_WindV_IsbL-0250_LatLon0.15_PT093H.grib2 2026-04-22 04:33 848K
20260422T00Z_MSC_GDPS_WindV_IsbL-0275_LatLon0.15_PT093H.grib2 2026-04-22 04:33 930K
20260422T00Z_MSC_GDPS_WindV_IsbL-0300_LatLon0.15_PT093H.grib2 2026-04-22 04:33 923K
20260422T00Z_MSC_GDPS_WindV_IsbL-0350_LatLon0.15_PT093H.grib2 2026-04-22 04:33 937K
20260422T00Z_MSC_GDPS_WindV_IsbL-0400_LatLon0.15_PT093H.grib2 2026-04-22 04:33 879K
20260422T00Z_MSC_GDPS_WindV_IsbL-0450_LatLon0.15_PT093H.grib2 2026-04-22 04:33 879K
20260422T00Z_MSC_GDPS_WindV_IsbL-0500_LatLon0.15_PT093H.grib2 2026-04-22 04:33 883K
20260422T00Z_MSC_GDPS_WindV_IsbL-0550_LatLon0.15_PT093H.grib2 2026-04-22 04:33 1.1M
20260422T00Z_MSC_GDPS_WindV_IsbL-0600_LatLon0.15_PT093H.grib2 2026-04-22 04:33 1.1M
20260422T00Z_MSC_GDPS_WindV_IsbL-0650_LatLon0.15_PT093H.grib2 2026-04-22 04:33 1.2M
20260422T00Z_MSC_GDPS_WindV_IsbL-0700_LatLon0.15_PT093H.grib2 2026-04-22 04:33 1.2M
20260422T00Z_MSC_GDPS_WindV_IsbL-0750_LatLon0.15_PT093H.grib2 2026-04-22 04:33 1.3M
20260422T00Z_MSC_GDPS_WindV_IsbL-0800_LatLon0.15_PT093H.grib2 2026-04-22 04:33 1.3M
20260422T00Z_MSC_GDPS_WindV_IsbL-0850_LatLon0.15_PT093H.grib2 2026-04-22 04:33 1.4M
20260422T00Z_MSC_GDPS_WindV_IsbL-0875_LatLon0.15_PT093H.grib2 2026-04-22 04:33 1.4M
20260422T00Z_MSC_GDPS_WindV_IsbL-0900_LatLon0.15_PT093H.grib2 2026-04-22 04:33 1.5M
20260422T00Z_MSC_GDPS_WindV_IsbL-0925_LatLon0.15_PT093H.grib2 2026-04-22 04:33 1.5M
20260422T00Z_MSC_GDPS_WindV_IsbL-0950_LatLon0.15_PT093H.grib2 2026-04-22 04:33 1.4M
20260422T00Z_MSC_GDPS_WindV_IsbL-0970_LatLon0.15_PT093H.grib2 2026-04-22 04:33 1.4M
20260422T00Z_MSC_GDPS_WindV_IsbL-0985_LatLon0.15_PT093H.grib2 2026-04-22 04:33 1.4M
20260422T00Z_MSC_GDPS_WindV_IsbL-1000_LatLon0.15_PT093H.grib2 2026-04-22 04:33 1.4M
20260422T00Z_MSC_GDPS_WindV_IsbL-1015_LatLon0.15_PT093H.grib2 2026-04-22 04:33 1.4M